ADR757 LTAI-LCLK

Flight info

Callsign ADR757
Flight time N/A
Altitude 25000
Route TOMBI M855 DASNI M601 BONEK
Aircraft A320/M-DGV/A

Departure

Time N/A
Airport Antalya International Airport (LTAI)

Arrival

Time 2026-05-07 19:12
Airport Larnaca International Airport (LCLK)
Time Latitude Longitude Altitude Speed Heading
2026-05-07 18:44 35.80127 30.83908 25163 ft 466 kts 179°
2026-05-07 18:44 35.76856 30.84104 25126 ft 465 kts 179°
2026-05-07 18:44 35.73661 30.84292 25128 ft 465 kts 179°
2026-05-07 18:45 35.70438 30.84594 25138 ft 467 kts 172°
2026-05-07 18:45 35.67296 30.85617 25140 ft 468 kts 159°
2026-05-07 18:45 35.64408 30.87472 25143 ft 469 kts 145°
2026-05-07 18:45 35.61942 30.90071 25142 ft 469 kts 131°
2026-05-07 18:46 35.60004 30.93281 25143 ft 467 kts 118°
2026-05-07 18:46 35.58683 30.96899 25145 ft 465 kts 106°
2026-05-07 18:46 35.57717 31.00689 25149 ft 465 kts 105°
2026-05-07 18:46 35.56773 31.04438 25146 ft 465 kts 105°
2026-05-07 18:47 35.55813 31.08238 25147 ft 465 kts 105°
2026-05-07 18:47 35.54855 31.12026 25147 ft 466 kts 105°
2026-05-07 18:47 35.53895 31.15828 25145 ft 466 kts 105°
2026-05-07 18:47 35.52937 31.19620 25146 ft 466 kts 105°
2026-05-07 18:48 35.51976 31.23427 25146 ft 466 kts 105°
2026-05-07 18:48 35.51011 31.27233 25147 ft 467 kts 105°
2026-05-07 18:48 35.50045 31.31028 25148 ft 467 kts 105°
2026-05-07 18:48 35.49085 31.34784 25148 ft 467 kts 105°
2026-05-07 18:49 35.48112 31.38578 25148 ft 467 kts 105°
2026-05-07 18:49 35.47135 31.42386 25151 ft 467 kts 105°
2026-05-07 18:49 35.46155 31.46193 25150 ft 468 kts 105°
2026-05-07 18:49 35.45179 31.49989 25149 ft 468 kts 105°
2026-05-07 18:50 35.44199 31.53798 25147 ft 468 kts 105°
2026-05-07 18:50 35.43222 31.57609 25150 ft 468 kts 105°
2026-05-07 18:50 35.42247 31.61408 25146 ft 468 kts 105°
2026-05-07 18:50 35.41277 31.65168 25146 ft 468 kts 105°
2026-05-07 18:51 35.40293 31.68966 25148 ft 469 kts 105°
2026-05-07 18:51 35.39304 31.72777 25147 ft 469 kts 105°
2026-05-07 18:51 35.38313 31.76587 25146 ft 469 kts 105°
2026-05-07 18:51 35.37324 31.80384 25146 ft 469 kts 105°
2026-05-07 18:52 35.36333 31.84197 25150 ft 469 kts 105°
2026-05-07 18:52 35.35347 31.87998 25148 ft 469 kts 105°
2026-05-07 18:52 35.34355 31.91811 25149 ft 469 kts 105°
2026-05-07 18:52 35.33359 31.95625 25147 ft 469 kts 105°
2026-05-07 18:53 35.32378 31.99372 25150 ft 469 kts 105°
2026-05-07 18:53 35.31379 32.03182 25149 ft 469 kts 105°
2026-05-07 18:53 35.30382 32.06982 25151 ft 469 kts 105°
2026-05-07 18:53 35.29384 32.10789 25131 ft 468 kts 105°
2026-05-07 18:54 35.28395 32.14546 24766 ft 458 kts 105°
2026-05-07 18:54 35.27425 32.18228 23979 ft 454 kts 105°
2026-05-07 18:54 35.26458 32.21896 23018 ft 451 kts 105°
2026-05-07 18:54 35.25497 32.25535 22094 ft 447 kts 105°
2026-05-07 18:55 35.24562 32.29057 21517 ft 436 kts 105°
2026-05-07 18:55 35.23639 32.32530 21074 ft 422 kts 105°
2026-05-07 18:55 35.22743 32.35903 20509 ft 414 kts 105°
2026-05-07 18:55 35.21857 32.39241 19824 ft 410 kts 105°
2026-05-07 18:56 35.20979 32.42553 19126 ft 408 kts 106°
2026-05-07 18:56 35.20107 32.45832 18453 ft 405 kts 106°
2026-05-07 18:56 35.19238 32.49095 17722 ft 401 kts 106°
2026-05-07 18:56 35.18378 32.52318 17061 ft 395 kts 106°
2026-05-07 18:57 35.17535 32.55482 16445 ft 389 kts 107°
2026-05-07 18:57 35.16711 32.58564 15858 ft 383 kts 107°
2026-05-07 18:57 35.15891 32.61632 15278 ft 378 kts 107°
2026-05-07 18:57 35.15080 32.64664 14723 ft 372 kts 107°
2026-05-07 18:58 35.14280 32.67652 14170 ft 367 kts 107°
2026-05-07 18:58 35.13489 32.70589 13580 ft 362 kts 107°
2026-05-07 18:58 35.12704 32.73497 12953 ft 358 kts 107°
2026-05-07 18:58 35.11931 32.76361 12351 ft 354 kts 107°
2026-05-07 18:59 35.11165 32.79199 11760 ft 349 kts 107°
2026-05-07 18:59 35.10409 32.82005 11185 ft 344 kts 107°
2026-05-07 18:59 35.09664 32.84765 10608 ft 340 kts 107°
2026-05-07 18:59 35.08935 32.87454 10084 ft 337 kts 107°
2026-05-07 19:00 35.08209 32.90124 9818 ft 324 kts 107°
2026-05-07 19:00 35.07516 32.92671 9696 ft 309 kts 107°
2026-05-07 19:00 35.06847 32.95100 9594 ft 295 kts 107°
2026-05-07 19:00 35.06187 32.97415 9440 ft 284 kts 108°
2026-05-07 19:01 35.05534 32.99672 9111 ft 281 kts 108°
2026-05-07 19:01 35.04887 33.01913 8715 ft 281 kts 107°
2026-05-07 19:01 35.04238 33.04161 8335 ft 281 kts 107°
2026-05-07 19:01 35.03601 33.06371 7994 ft 279 kts 107°
2026-05-07 19:02 35.02961 33.08589 7683 ft 277 kts 107°
2026-05-07 19:02 35.02324 33.10796 7369 ft 274 kts 106°
2026-05-07 19:02 35.01692 33.12982 7053 ft 272 kts 106°
2026-05-07 19:02 35.01066 33.15152 6752 ft 271 kts 105°
2026-05-07 19:03 35.00441 33.17319 6455 ft 270 kts 105°
2026-05-07 19:03 34.99822 33.19466 6139 ft 269 kts 105°
2026-05-07 19:03 34.99202 33.21614 5821 ft 268 kts 105°
2026-05-07 19:03 34.98595 33.23722 5518 ft 266 kts 106°
2026-05-07 19:04 34.97983 33.25844 5230 ft 265 kts 106°
2026-05-07 19:04 34.97369 33.27963 4952 ft 264 kts 106°
2026-05-07 19:04 34.96762 33.30063 4602 ft 263 kts 105°
2026-05-07 19:04 34.96534 33.32242 4237 ft 259 kts 79°
2026-05-07 19:05 34.97072 33.34303 3920 ft 255 kts 64°
2026-05-07 19:05 34.97805 33.36280 3561 ft 256 kts 63°
2026-05-07 19:05 34.98550 33.38248 3191 ft 256 kts 62°
2026-05-07 19:05 34.99294 33.40230 2847 ft 259 kts 62°
2026-05-07 19:06 35.00021 33.42204 2547 ft 258 kts 63°
2026-05-07 19:06 35.01495 33.46191 2030 ft 258 kts 62°
2026-05-07 19:06 35.02170 33.48229 2005 ft 262 kts 75°
2026-05-07 19:07 35.02260 33.50450 2030 ft 264 kts 91°
2026-05-07 19:07 35.02132 33.52691 2032 ft 265 kts 92°
2026-05-07 19:07 35.01974 33.54930 2032 ft 265 kts 92°
2026-05-07 19:07 35.01816 33.57171 2035 ft 265 kts 92°
2026-05-07 19:08 35.01659 33.59375 2007 ft 265 kts 92°
2026-05-07 19:08 35.01500 33.61615 2011 ft 264 kts 93°
2026-05-07 19:08 35.01346 33.63834 2008 ft 258 kts 92°
2026-05-07 19:08 35.01066 33.65952 2020 ft 247 kts 103°
2026-05-07 19:09 35.00418 33.67840 2023 ft 237 kts 119°
2026-05-07 19:09 34.99470 33.69428 2017 ft 228 kts 130°
2026-05-07 19:09 34.98390 33.70828 1961 ft 228 kts 137°
2026-05-07 19:09 34.96981 33.71724 1817 ft 231 kts 169°
2026-05-07 19:10 34.95414 33.71643 1687 ft 223 kts 201°
2026-05-07 19:10 34.94143 33.70715 1534 ft 212 kts 226°
2026-05-07 19:10 34.93132 33.69483 1270 ft 198 kts 229°
2026-05-07 19:10 34.92214 33.68337 1080 ft 180 kts 229°
2026-05-07 19:11 34.91373 33.67302 876 ft 161 kts 229°
2026-05-07 19:11 34.90629 33.66389 711 ft 143 kts 228°
2026-05-07 19:11 34.89949 33.65555 546 ft 138 kts 229°
2026-05-07 19:11 34.89275 33.64728 363 ft 138 kts 229°
2026-05-07 19:12 34.88602 33.63899 137 ft 136 kts 228°
2026-05-07 19:12 34.87932 33.63073 31 ft 137 kts 229°
2026-05-07 19:12 34.87329 33.62327 20 ft 110 kts 224°
2026-05-07 19:12 34.87020 33.61945 21 ft 39 kts 241°
2026-05-07 19:13 34.86938 33.61648 20 ft 36 kts 257°
2026-05-07 19:13 34.86903 33.61357 20 ft 34 kts 290°
2026-05-07 19:13 34.86901 33.61187 20 ft 8 kts 234°
2026-05-07 19:13 34.86900 33.61185 20 ft 0 kts 234°